Fort Indiantown Gap, PA

9:46 PM EDT on May 26, 2018 (GMT -0400)
Muir Army Air Field

Weather History for KMUI - December, 2012

Change the Weather History Date:

Saturday, December 1, 2012

  Actual Average Record
Temperature  
Mean Temperature 37 °F -  
Max Temperature 41 °F 45 °F 71 °F (2006)
Min Temperature 33 °F 32 °F 21 °F (2013)
Degree Days  
Heating Degree Days 28    
Moisture  
Dew Point 36 °F    
Average Humidity 92    
Maximum Humidity 100    
Minimum Humidity 80    
Precipitation  
Precipitation 0.00 in - - ()
Sea Level Pressure  
Sea Level Pressure 30.44 in    
Wind  
Wind Speed 5 mph (ENE)    
Max Wind Speed 8 mph    
Max Gust Speed -    
Visibility 5 miles    
Events      
Averages and records for this station are not official NWS values.
T = Trace of Precipitation, MM = Missing Value Source: NWS Daily Summary

Daily Weather History Graph

Daily Weather History Graph

Search for Another Location

Airport or City:

Astronomy

Dec. 01, 2012 Rise Set
Actual Time 7:10 AM EST 4:40 PM EST
Civil Twilight 6:40 AM EST 5:10 PM EST
Nautical Twilight 6:06 AM EST 5:44 PM EST
Astronomical Twilight 5:33 AM EST 6:17 PM EST
Moon 7:28 PM EST (12/1) 9:21 AM EST (12/1)
Length of Visible Light 10h 30m
Length of Day
9h 29m
Waning Gibbous, 92% of the Moon is Illuminated
Dec 1
Waning Gibbous
Dec 6
Last Quarter
Dec 13
New
Dec 20
First Quarter
Dec 28
Full

Hourly Weather History & Observations

Time (EST) Temp. Windchill Dew Point Humidity Pressure Visibility Wind Dir Wind Speed Gust Speed Precip Events Conditions
12:55 AM 35.1 °F - 29.3 °F 80% 30.40 in 10.0 mi Calm Calm - N/A   Partly Cloudy
1:52 AM 33.8 °F 29.6 °F 30.2 °F 87% 30.40 in 10.0 mi NNE 4.6 mph - N/A   Scattered Clouds
1:55 AM 34.9 °F 32.0 °F 31.3 °F 87% 30.40 in 10.0 mi NE 3.5 mph - N/A   Scattered Clouds
1:58 AM 35.6 °F 32.8 °F 32.0 °F 87% 30.40 in 10.0 mi NE 3.5 mph - N/A   Mostly Cloudy
2:21 AM 35.6 °F 31.7 °F 33.8 °F 93% 30.40 in 10.0 mi ENE 4.6 mph - N/A   Overcast
2:55 AM 37.8 °F 34.2 °F 34.9 °F 89% 30.40 in 9.0 mi NE 4.6 mph - N/A   Overcast
3:55 AM 37.9 °F 32.7 °F 33.1 °F 83% 30.40 in 10.0 mi ENE 6.9 mph - N/A   Overcast
4:55 AM 37.0 °F 31.6 °F 32.4 °F 83% 30.42 in 10.0 mi ENE 6.9 mph - N/A   Overcast
5:55 AM 36.9 °F 32.2 °F 32.4 °F 84% 30.43 in 10.0 mi East 5.8 mph - N/A   Overcast
6:55 AM 36.7 °F 32.0 °F 32.5 °F 85% 30.45 in 10.0 mi ENE 5.8 mph - N/A   Overcast
7:41 AM 35.6 °F 29.2 °F 33.8 °F 93% 30.46 in 9.0 mi NE 8.1 mph - N/A   Overcast
7:55 AM 36.3 °F 30.8 °F 33.1 °F 88% 30.46 in 7.0 mi ENE 6.9 mph - N/A   Overcast
7:57 AM 35.6 °F 30.7 °F 33.8 °F 93% 30.46 in 7.0 mi ENE 5.8 mph - N/A   Overcast
8:46 AM 37.4 °F 32.1 °F 33.8 °F 87% 30.48 in 7.0 mi ENE 6.9 mph - N/A   Overcast
8:55 AM 36.7 °F 31.2 °F 33.4 °F 88% 30.49 in 7.0 mi ENE 6.9 mph - N/A   Overcast
9:13 AM 37.4 °F 32.8 °F 33.8 °F 87% 30.49 in 7.0 mi ENE 5.8 mph - N/A   Overcast
9:55 AM 37.2 °F 32.6 °F 34.0 °F 88% 30.49 in 6.0 mi ENE 5.8 mph - N/A   Overcast
10:55 AM 37.6 °F 31.6 °F 34.5 °F 89% 30.47 in 5.0 mi East 8.1 mph - N/A   Overcast
11:55 AM 38.5 °F 35.0 °F 35.2 °F 88% 30.45 in 5.0 mi East 4.6 mph - N/A   Overcast
12:55 PM 38.7 °F 34.3 °F 36.1 °F 91% 30.43 in 4.0 mi ENE 5.8 mph - N/A   Overcast
1:55 PM 39.4 °F 37.2 °F 36.9 °F 91% 30.42 in 4.0 mi Variable 3.5 mph - N/A   Overcast
2:55 PM 40.1 °F 36.1 °F 37.4 °F 90% 30.42 in 4.0 mi East 5.8 mph - N/A   Overcast
3:55 PM 40.5 °F - 37.6 °F 89% 30.42 in 5.0 mi Calm Calm - N/A   Overcast
4:28 PM 41.0 °F 39.0 °F 37.4 °F 87% 30.43 in 5.0 mi ENE 3.5 mph - N/A   Overcast
4:50 PM 41.0 °F 39.0 °F 37.4 °F 87% 30.43 in 6.0 mi East 3.5 mph - N/A   Overcast
4:55 PM 40.5 °F 38.4 °F 37.4 °F 89% 30.43 in 7.0 mi East 3.5 mph - N/A   Overcast
5:23 PM 39.2 °F 35.9 °F 37.4 °F 93% 30.43 in 6.0 mi ENE 4.6 mph - N/A   Overcast
5:53 PM 39.2 °F 35.0 °F 37.4 °F 93% 30.44 in 6.0 mi ENE 5.8 mph - N/A   Overcast
5:55 PM 39.9 °F 35.8 °F 37.6 °F 91% 30.44 in 6.0 mi ENE 5.8 mph - N/A   Overcast
6:35 PM 39.2 °F 35.0 °F 37.4 °F 93% 30.44 in 5.0 mi ENE 5.8 mph - N/A   Overcast
6:55 PM 39.2 °F 33.6 °F 38.1 °F 96% 30.44 in 4.0 mi ENE 8.1 mph - N/A   Overcast
6:57 PM 39.2 °F 34.2 °F 37.4 °F 93% 30.44 in 4.0 mi ENE 6.9 mph - N/A   Overcast
7:17 PM 39.2 °F 35.0 °F 39.2 °F 100% 30.44 in 3.0 mi East 5.8 mph - N/A   Overcast
7:24 PM 39.2 °F 35.0 °F 39.2 °F 100% 30.44 in 2.5 mi East 5.8 mph - N/A   Overcast
7:53 PM 39.2 °F 35.0 °F 37.4 °F 93% 30.44 in 1.8 mi East 5.8 mph - N/A   Overcast
7:55 PM 38.5 °F 35.0 °F 38.1 °F 99% 30.44 in 1.8 mi East 4.6 mph - N/A   Overcast
8:22 PM 39.2 °F 35.9 °F 37.4 °F 93% 30.45 in 1.5 mi ENE 4.6 mph - N/A   Overcast
8:29 PM 39.2 °F 35.0 °F 37.4 °F 93% 30.45 in 1.2 mi ENE 5.8 mph - N/A   Overcast
8:52 PM 39.2 °F 37.0 °F 37.4 °F 93% 30.45 in 1.5 mi NE 3.5 mph - N/A   Overcast
8:55 PM 38.3 °F 33.9 °F 38.1 °F 99% 30.45 in 1.5 mi ENE 5.8 mph - N/A   Overcast
9:16 PM 37.4 °F 32.8 °F 37.4 °F 100% 30.44 in 1.2 mi East 5.8 mph - N/A   Overcast
9:32 PM 37.4 °F 33.8 °F 37.4 °F 100% 30.43 in 1.5 mi ENE 4.6 mph - N/A   Overcast
9:35 PM 37.4 °F 32.8 °F 37.4 °F 100% 30.43 in 1.2 mi East 5.8 mph - N/A   Overcast
9:44 PM 37.4 °F 33.8 °F 37.4 °F 100% 30.43 in 1.5 mi ENE 4.6 mph - N/A   Overcast
9:54 PM 37.4 °F 34.9 °F 37.4 °F 100% 30.44 in 1.2 mi NE 3.5 mph - N/A   Overcast
9:55 PM 38.1 °F 35.7 °F 37.9 °F 99% 30.44 in 1.2 mi NE 3.5 mph - N/A   Overcast
10:04 PM 37.4 °F 34.9 °F 37.4 °F 100% 30.44 in 1.0 mi ENE 3.5 mph - N/A   Mist
10:32 PM 39.2 °F 37.0 °F 37.4 °F 93% 30.43 in 0.8 mi ENE 3.5 mph - N/A   Mist
10:55 PM 38.3 °F 33.9 °F 37.9 °F 99% 30.42 in 0.8 mi East 5.8 mph - N/A   Mist